| time (UTC) | temp F | wind direction | speed knots | gust knots | rain 1hr in | rain 24hr in | rain mn in | humidity % | barometer mb |
| 20260510234529 | 36 | 360 | 0.0 | 0.0 | 0.00 | 0.00 | 0.00 | 86 | 1014.5 |
| 20260510234008 | 36 | 360 | 0.0 | 0.0 | 0.00 | 0.00 | 0.00 | 86 | 1014.6 |
| 20260510233506 | 36 | 360 | 0.0 | 0.0 | 0.00 | 0.00 | 0.00 | 87 | 1014.5 |
| 20260510233030 | 36 | 360 | 0.0 | 0.0 | 0.00 | 0.00 | 0.00 | 86 | 1014.6 |
| 20260510232506 | 36 | 360 | 0.0 | 0.0 | 0.00 | 0.00 | 0.00 | 86 | 1014.7 |
| 20260510232006 | 37 | 360 | 0.0 | 0.0 | 0.00 | 0.00 | 0.00 | 86 | 1014.9 |
| 20260510231529 | 37 | 360 | 0.0 | 0.0 | 0.00 | 0.00 | 0.00 | 86 | 1014.9 |
| 20260510231013 | 37 | 360 | 0.0 | 0.0 | 0.00 | 0.00 | 0.00 | 86 | 1015.0 |
| 20260510230508 | 37 | 360 | 0.0 | 0.0 | 0.00 | 0.00 | 0.00 | 86 | 1015.0 |
| 20260510230026 | 37 | 360 | 0.0 | 0.0 | 0.00 | 0.00 | 0.00 | 86 | 1015.1 |
| 20260510225510 | 37 | 360 | 0.0 | 0.0 | 0.00 | 0.00 | 0.00 | 86 | 1015.1 |
| 20260510225009 | 37 | 360 | 0.0 | 0.0 | 0.00 | 0.00 | 0.00 | 85 | 1015.1 |
| 20260510224526 | 37 | 360 | 0.0 | 0.0 | 0.00 | 0.00 | 0.00 | 85 | 1015.2 |
| 20260510224012 | 37 | 360 | 0.0 | 0.0 | 0.00 | 0.00 | 0.00 | 85 | 1015.4 |
| 20260510223507 | 37 | 360 | 0.0 | 0.0 | 0.00 | 0.00 | 0.00 | 85 | 1015.4 |
| 20260510223028 | 37 | 360 | 0.0 | 0.0 | 0.00 | 0.00 | 0.00 | 85 | 1015.5 |
| 20260510222508 | 37 | 360 | 0.0 | 0.0 | 0.00 | 0.00 | 0.00 | 85 | 1015.4 |
| 20260510222008 | 37 | 360 | 0.0 | 0.0 | 0.00 | 0.00 | 0.00 | 85 | 1015.5 |
| 20260510221522 | 38 | 360 | 0.0 | 0.0 | 0.00 | 0.00 | 0.00 | 85 | 1015.6 |
| 20260510221004 | 38 | 360 | 0.0 | 0.0 | 0.00 | 0.00 | 0.00 | 84 | 1015.5 |
| 20260510220504 | 38 | 360 | 0.0 | 0.0 | 0.00 | 0.00 | 0.00 | 84 | 1015.6 |
| 20260510220011 | 38 | 360 | 0.0 | 0.0 | 0.00 | 0.00 | 0.00 | 84 | 1015.6 |
| 20260510215503 | 38 | 360 | 0.0 | 0.0 | 0.00 | 0.00 | 0.00 | 83 | 1015.6 |
| 20260510215004 | 38 | 360 | 0.0 | 0.0 | 0.00 | 0.00 | 0.00 | 82 | 1015.6 |
| 20260510214512 | 39 | 360 | 0.0 | 0.0 | 0.00 | 0.00 | 0.00 | 82 | 1015.6 |
| 20260510214004 | 39 | 360 | 0.0 | 0.0 | 0.00 | 0.00 | 0.00 | 82 | 1015.7 |
| 20260510213504 | 39 | 360 | 0.0 | 0.0 | 0.00 | 0.00 | 0.00 | 81 | 1015.7 |
| 20260510213014 | 39 | 360 | 0.0 | 0.0 | 0.00 | 0.00 | 0.00 | 81 | 1015.7 |
| 20260510212503 | 40 | 360 | 0.0 | 0.0 | 0.00 | 0.00 | 0.00 | 80 | 1015.8 |
| 20260510212005 | 40 | 360 | 0.0 | 0.0 | 0.00 | 0.00 | 0.00 | 79 | 1015.7 |
| 20260510211514 | 40 | 360 | 0.0 | 0.0 | 0.00 | 0.00 | 0.00 | 79 | 1015.7 |
| 20260510211004 | 40 | 360 | 0.0 | 0.0 | 0.00 | 0.00 | 0.00 | 77 | 1015.8 |
| 20260510210508 | 41 | 360 | 0.0 | 0.0 | 0.00 | 0.00 | 0.00 | 74 | 1015.7 |
| 20260510210013 | 41 | 360 | 0.0 | 0.0 | 0.00 | 0.00 | 0.00 | 74 | 1015.8 |
| 20260510205504 | 42 | 360 | 0.0 | 0.0 | 0.00 | 0.00 | 0.00 | 73 | 1015.7 |
| 20260510205004 | 42 | 360 | 0.0 | 0.0 | 0.00 | 0.00 | 0.00 | 71 | 1015.7 |
| 20260510204510 | 43 | 360 | 0.0 | 0.0 | 0.00 | 0.00 | 0.00 | 71 | 1015.8 |
| 20260510204003 | 43 | 360 | 0.0 | 0.0 | 0.00 | 0.00 | 0.00 | 69 | 1015.8 |
| 20260510203504 | 44 | 360 | 0.0 | 0.0 | 0.00 | 0.00 | 0.00 | 69 | 1015.8 |
| 20260510203014 | 44 | 360 | 0.0 | 0.0 | 0.00 | 0.00 | 0.00 | 68 | 1015.9 |
| 20260510202505 | 44 | 360 | 0.0 | 0.0 | 0.00 | 0.00 | 0.00 | 67 | 1016.0 |
| 20260510202009 | 45 | 360 | 0.0 | 0.9 | 0.00 | 0.00 | 0.00 | 66 | 1015.9 |
| 20260510201512 | 45 | 360 | 0.0 | 0.9 | 0.00 | 0.00 | 0.00 | 65 | 1015.9 |
| 20260510201006 | 46 | 360 | 0.0 | 1.7 | 0.00 | 0.00 | 0.00 | 65 | 1016.0 |
| 20260510200507 | 46 | 360 | 0.0 | 1.7 | 0.00 | 0.00 | 0.00 | 64 | 1015.9 |
| 20260510200014 | 46 | 360 | 0.0 | 1.7 | 0.00 | 0.00 | 0.00 | 62 | 1015.9 |
| 20260510195503 | 47 | 360 | 0.0 | 1.7 | 0.00 | 0.00 | 0.00 | 62 | 1016.0 |
| 20260510195004 | 47 | 360 | 0.0 | 0.9 | 0.00 | 0.00 | 0.00 | 60 | 1016.0 |
| 20260510194507 | 48 | 360 | 0.0 | 0.0 | 0.00 | 0.00 | 0.00 | 59 | 1016.0 |
| 20260510194004 | 48 | 360 | 0.0 | 1.7 | 0.00 | 0.00 | 0.00 | 59 | 1016.0 |
| 20260510193504 | 49 | 360 | 0.0 | 1.7 | 0.00 | 0.00 | 0.00 | 57 | 1016.0 |
| 20260510193011 | 49 | 360 | 0.0 | 3.5 | 0.00 | 0.00 | 0.00 | 58 | 1016.1 |
| 20260510192507 | 49 | 360 | 0.0 | 3.5 | 0.00 | 0.00 | 0.00 | 56 | 1016.1 |
| 20260510192007 | 49 | 360 | 0.9 | 3.5 | 0.00 | 0.00 | 0.00 | 55 | 1016.2 |
| 20260510191514 | 50 | 360 | 0.0 | 3.5 | 0.00 | 0.00 | 0.00 | 56 | 1016.2 |
| 20260510191008 | 50 | 360 | 0.0 | 1.7 | 0.00 | 0.00 | 0.00 | 55 | 1016.2 |
| 20260510190508 | 50 | 360 | 0.0 | 2.6 | 0.00 | 0.00 | 0.00 | 54 | 1016.2 |
| 20260510190017 | 50 | 360 | 0.0 | 3.5 | 0.00 | 0.00 | 0.00 | 54 | 1016.2 |
| 20260510185507 | 51 | 360 | 0.9 | 3.5 | 0.00 | 0.00 | 0.00 | 52 | 1016.2 |
| 20260510185006 | 51 | 360 | 0.0 | 2.6 | 0.00 | 0.00 | 0.00 | 52 | 1016.2 |
| 20260510184519 | 51 | 360 | 0.0 | 2.6 | 0.00 | 0.00 | 0.00 | 51 | 1016.3 |
| 20260510184007 | 51 | 360 | 0.9 | 4.3 | 0.00 | 0.00 | 0.00 | 50 | 1016.3 |
| 20260510183503 | 52 | 360 | 0.9 | 4.3 | 0.00 | 0.00 | 0.00 | 50 | 1016.3 |
| 20260510183010 | 52 | 360 | 0.9 | 3.5 | 0.00 | 0.00 | 0.00 | 50 | 1016.3 |
| 20260510182505 | 52 | 360 | 0.9 | 4.3 | 0.00 | 0.00 | 0.00 | 49 | 1016.4 |
| 20260510182008 | 53 | 360 | 0.0 | 4.3 | 0.00 | 0.00 | 0.00 | 49 | 1016.3 |
| 20260510181512 | 53 | 145 | 0.9 | 7.0 | 0.00 | 0.00 | 0.00 | 48 | 1016.3 |
| 20260510181007 | 53 | 336 | 1.7 | 7.0 | 0.00 | 0.00 | 0.00 | 47 | 1016.3 |
| 20260510180507 | 53 | 333 | 0.9 | 6.1 | 0.00 | 0.00 | 0.00 | 47 | 1016.3 |
| 20260510180017 | 53 | 9 | 1.7 | 5.2 | 0.00 | 0.00 | 0.00 | 47 | 1016.3 |
| 20260510175506 | 54 | 94 | 0.9 | 5.2 | 0.00 | 0.00 | 0.00 | 48 | 1016.4 |
| 20260510175006 | 54 | 82 | 1.7 | 3.5 | 0.00 | 0.00 | 0.00 | 46 | 1016.4 |
| 20260510174517 | 54 | 10 | 0.9 | 4.3 | 0.00 | 0.00 | 0.00 | 47 | 1016.3 |
| 20260510174014 | 54 | 17 | 0.9 | 5.2 | 0.00 | 0.00 | 0.00 | 48 | 1016.3 |
| 20260510173511 | 53 | 9 | 1.7 | 5.2 | 0.00 | 0.00 | 0.00 | 47 | 1016.3 |
| 20260510173019 | 54 | 321 | 1.7 | 4.3 | 0.00 | 0.00 | 0.00 | 47 | 1016.3 |
| 20260510172510 | 54 | 321 | 0.9 | 3.5 | 0.00 | 0.00 | 0.00 | 48 | 1016.3 |
| 20260510172003 | 54 | 360 | 0.0 | 7.8 | 0.00 | 0.00 | 0.00 | 47 | 1016.4 |
| 20260510171510 | 55 | 344 | 3.5 | 7.8 | 0.00 | 0.00 | 0.00 | 44 | 1016.4 |
| 20260510171006 | 55 | 30 | 1.7 | 7.0 | 0.00 | 0.00 | 0.00 | 45 | 1016.5 |
| 20260510170507 | 56 | 309 | 1.7 | 7.0 | 0.00 | 0.00 | 0.00 | 44 | 1016.6 |
| 20260510170018 | 55 | 313 | 0.9 | 7.8 | 0.00 | 0.00 | 0.00 | 44 | 1016.6 |
| 20260510165508 | 56 | 352 | 2.6 | 7.8 | 0.00 | 0.00 | 0.00 | 43 | 1016.7 |
| 20260510165010 | 57 | 280 | 0.9 | 7.0 | 0.00 | 0.00 | 0.00 | 42 | 1016.7 |
| 20260510164518 | 57 | 257 | 2.6 | 7.0 | 0.00 | 0.00 | 0.00 | 43 | 1016.8 |
| 20260510164012 | 57 | 333 | 1.7 | 7.8 | 0.00 | 0.00 | 0.00 | 45 | 1016.8 |
| 20260510163507 | 57 | 117 | 2.6 | 7.8 | 0.00 | 0.00 | 0.00 | 45 | 1017.0 |
| 20260510163020 | 56 | 119 | 1.7 | 6.1 | 0.00 | 0.00 | 0.00 | 45 | 1016.9 |
| 20260510162514 | 56 | 11 | 2.6 | 6.1 | 0.00 | 0.00 | 0.00 | 45 | 1017.1 |
| 20260510162009 | 55 | 80 | 1.7 | 7.0 | 0.00 | 0.00 | 0.00 | 46 | 1017.1 |
| 20260510161519 | 55 | 340 | 0.9 | 7.8 | 0.00 | 0.00 | 0.00 | 45 | 1017.2 |
| 20260510161003 | 56 | 292 | 1.7 | 7.8 | 0.00 | 0.00 | 0.00 | 46 | 1017.3 |
| 20260510160507 | 56 | 71 | 1.7 | 7.0 | 0.00 | 0.00 | 0.00 | 45 | 1017.3 |
| 20260510160016 | 56 | 82 | 0.9 | 8.7 | 0.00 | 0.00 | 0.00 | 46 | 1017.3 |
| 20260510155511 | 57 | 338 | 2.6 | 8.7 | 0.00 | 0.00 | 0.00 | 43 | 1017.4 |
| 20260510155008 | 58 | 236 | 3.5 | 8.7 | 0.00 | 0.00 | 0.00 | 44 | 1017.4 |
| 20260510154524 | 57 | 323 | 1.7 | 3.5 | 0.00 | 0.00 | 0.00 | 46 | 1017.3 |
| 20260510154008 | 57 | 294 | 0.0 | 5.2 | 0.00 | 0.00 | 0.00 | 45 | 1017.5 |
| 20260510153511 | 58 | 130 | 0.9 | 7.8 | 0.00 | 0.00 | 0.00 | 44 | 1017.5 |
| 20260510153019 | 59 | 27 | 1.7 | 7.8 | 0.00 | 0.00 | 0.00 | 44 | 1017.5 |
| 20260510152517 | 58 | 338 | 1.7 | 5.2 | 0.00 | 0.00 | 0.00 | 43 | 1017.5 |
| 20260510152009 | 58 | 309 | 0.9 | 9.6 | 0.00 | 0.00 | 0.00 | 46 | 1017.6 |
| 20260510151519 | 58 | 352 | 1.7 | 9.6 | 0.00 | 0.00 | 0.00 | 45 | 1017.7 |
| 20260510151010 | 59 | 87 | 2.6 | 9.6 | 0.00 | 0.00 | 0.00 | 44 | 1017.7 |
| 20260510150509 | 59 | 57 | 1.7 | 7.8 | 0.00 | 0.00 | 0.00 | 43 | 1017.6 |
| 20260510150012 | 58 | 352 | 1.7 | 8.7 | 0.00 | 0.00 | 0.00 | 44 | 1017.7 |
| 20260510145503 | 57 | 315 | 1.7 | 10.4 | 0.00 | 0.00 | 0.00 | 44 | 1017.8 |
| 20260510145007 | 58 | 9 | 4.3 | 10.4 | 0.00 | 0.00 | 0.00 | 46 | 1017.9 |
| 20260510144524 | 57 | 14 | 1.7 | 8.7 | 0.00 | 0.00 | 0.00 | 45 | 1017.8 |
| 20260510144008 | 58 | 17 | 3.5 | 8.7 | 0.00 | 0.00 | 0.00 | 45 | 1017.9 |
| 20260510143511 | 58 | 336 | 0.9 | 8.7 | 0.00 | 0.00 | 0.00 | 45 | 1017.9 |
| 20260510143026 | 58 | 51 | 1.7 | 8.7 | 0.00 | 0.00 | 0.00 | 45 | 1018.0 |
| 20260510142512 | 59 | 237 | 2.6 | 8.7 | 0.00 | 0.00 | 0.00 | 44 | 1018.1 |
| 20260510142013 | 59 | 23 | 1.7 | 7.0 | 0.00 | 0.00 | 0.00 | 45 | 1018.2 |
| 20260510141524 | 58 | 100 | 2.6 | 8.7 | 0.00 | 0.00 | 0.00 | 44 | 1018.2 |
| 20260510141010 | 57 | 47 | 1.7 | 8.7 | 0.00 | 0.00 | 0.00 | 47 | 1018.3 |
| 20260510140508 | 58 | 119 | 3.5 | 8.7 | 0.00 | 0.00 | 0.00 | 46 | 1018.5 |
| 20260510140020 | 58 | 351 | 2.6 | 6.1 | 0.00 | 0.00 | 0.00 | 47 | 1018.3 |
| 20260510135508 | 58 | 333 | 1.7 | 7.0 | 0.00 | 0.00 | 0.00 | 46 | 1018.3 |
| 20260510135004 | 58 | 284 | 1.7 | 7.0 | 0.00 | 0.00 | 0.00 | 47 | 1018.4 |
| 20260510134515 | 58 | 13 | 0.9 | 7.0 | 0.00 | 0.00 | 0.00 | 47 | 1018.5 |
| 20260510134008 | 57 | 33 | 1.7 | 7.8 | 0.00 | 0.00 | 0.00 | 48 | 1018.6 |
| 20260510133507 | 57 | 265 | 1.7 | 7.8 | 0.00 | 0.00 | 0.00 | 52 | 1018.6 |
| 20260510133023 | 57 | 283 | 2.6 | 7.0 | 0.00 | 0.00 | 0.00 | 50 | 1018.6 |
| 20260510132509 | 57 | 124 | 0.9 | 7.0 | 0.00 | 0.00 | 0.00 | 48 | 1018.7 |
| 20260510132010 | 57 | 10 | 1.7 | 7.0 | 0.00 | 0.00 | 0.00 | 51 | 1018.7 |
| 20260510131523 | 56 | 24 | 1.7 | 8.7 | 0.00 | 0.00 | 0.00 | 52 | 1018.7 |
| 20260510131007 | 56 | 138 | 1.7 | 8.7 | 0.00 | 0.00 | 0.00 | 51 | 1018.8 |
| 20260510130504 | 57 | 16 | 1.7 | 5.2 | 0.00 | 0.00 | 0.00 | 50 | 1018.8 |
| 20260510130014 | 57 | 17 | 1.7 | 8.7 | 0.00 | 0.00 | 0.00 | 52 | 1018.8 |
| 20260510125504 | 56 | 67 | 2.6 | 9.6 | 0.00 | 0.00 | 0.00 | 50 | 1018.9 |
| 20260510125007 | 56 | 251 | 2.6 | 9.6 | 0.00 | 0.00 | 0.00 | 49 | 1019.0 |
| 20260510124511 | 56 | 125 | 4.3 | 9.6 | 0.00 | 0.00 | 0.00 | 51 | 1019.1 |
| 20260510124007 | 56 | 314 | 3.5 | 10.4 | 0.00 | 0.00 | 0.00 | 51 | 1019.0 |
| 20260510123504 | 57 | 288 | 0.9 | 10.4 | 0.00 | 0.00 | 0.00 | 51 | 1019.1 |
| 20260510123017 | 58 | 175 | 2.6 | 10.4 | 0.00 | 0.00 | 0.00 | 51 | 1019.1 |
| 20260510122508 | 57 | 267 | 3.5 | 9.6 | 0.00 | 0.00 | 0.00 | 50 | 1019.1 |
| 20260510122010 | 57 | 21 | 2.6 | 9.6 | 0.00 | 0.00 | 0.00 | 53 | 1019.2 |
| 20260510121526 | 57 | 352 | 1.7 | 9.6 | 0.00 | 0.00 | 0.00 | 50 | 1019.4 |
| 20260510121007 | 57 | 188 | 1.7 | 7.8 | 0.00 | 0.00 | 0.00 | 51 | 1019.2 |
| 20260510120509 | 56 | 92 | 0.9 | 9.6 | 0.00 | 0.00 | 0.00 | 54 | 1019.4 |
| 20260510120036 | 57 | 294 | 2.6 | 9.6 | 0.00 | 0.00 | 0.00 | 52 | 1019.5 |
| 20260510115503 | 56 | 360 | 1.7 | 7.8 | 0.00 | 0.00 | 0.00 | 56 | 1019.4 |
| 20260510115007 | 55 | 139 | 1.7 | 7.8 | 0.00 | 0.00 | 0.00 | 56 | 1019.5 |
| 20260510114511 | 54 | 319 | 2.6 | 12.2 | 0.00 | 0.00 | 0.00 | 55 | 1019.6 |
| 20260510114005 | 54 | 342 | 3.5 | 11.3 | 0.00 | 0.00 | 0.00 | 58 | 1019.6 |
| 20260510113508 | 53 | 101 | 1.7 | 8.7 | 0.00 | 0.00 | 0.00 | 60 | 1019.7 |
| 20260510113014 | 53 | 111 | 1.7 | 7.8 | 0.00 | 0.00 | 0.00 | 59 | 1019.7 |
| 20260510112513 | 53 | 333 | 2.6 | 8.7 | 0.00 | 0.00 | 0.00 | 61 | 1019.8 |
| 20260510112007 | 53 | 257 | 2.6 | 8.7 | 0.00 | 0.00 | 0.00 | 61 | 1019.9 |
| 20260510111520 | 53 | 257 | 1.7 | 7.0 | 0.00 | 0.00 | 0.00 | 60 | 1019.9 |
| 20260510111011 | 52 | 257 | 0.9 | 12.2 | 0.00 | 0.00 | 0.00 | 62 | 1020.0 |
| 20260510110510 | 53 | 315 | 3.5 | 10.4 | 0.00 | 0.00 | 0.00 | 60 | 1020.1 |
| 20260510110028 | 53 | 45 | 1.7 | 9.6 | 0.00 | 0.00 | 0.00 | 60 | 1020.1 |
| 20260510105509 | 53 | 126 | 2.6 | 9.6 | 0.00 | 0.00 | 0.00 | 63 | 1020.1 |
| 20260510105006 | 52 | 134 | 2.6 | 8.7 | 0.00 | 0.00 | 0.00 | 62 | 1020.4 |
| 20260510104512 | 52 | 337 | 2.6 | 8.7 | 0.00 | 0.00 | 0.00 | 60 | 1020.4 |
| 20260510104005 | 53 | 39 | 0.9 | 7.8 | 0.00 | 0.00 | 0.00 | 61 | 1020.3 |
| 20260510103504 | 53 | 115 | 2.6 | 8.7 | 0.00 | 0.00 | 0.00 | 61 | 1020.4 |
| 20260510103012 | 54 | 78 | 1.7 | 8.7 | 0.00 | 0.00 | 0.00 | 61 | 1020.4 |
| 20260510102508 | 54 | 46 | 3.5 | 9.6 | 0.00 | 0.00 | 0.00 | 63 | 1020.3 |
| 20260510102006 | 53 | 69 | 3.5 | 9.6 | 0.00 | 0.00 | 0.00 | 62 | 1020.4 |
| 20260510101521 | 52 | 73 | 0.9 | 9.6 | 0.00 | 0.00 | 0.00 | 65 | 1020.5 |
| 20260510101006 | 52 | 351 | 3.5 | 11.3 | 0.00 | 0.00 | 0.00 | 63 | 1020.6 |
| 20260510100508 | 53 | 55 | 2.6 | 11.3 | 0.00 | 0.00 | 0.00 | 62 | 1020.6 |
| 20260510100023 | 53 | 19 | 3.5 | 9.6 | 0.00 | 0.00 | 0.00 | 65 | 1020.5 |
| 20260510095507 | 52 | 328 | 0.9 | 9.6 | 0.00 | 0.00 | 0.00 | 65 | 1020.7 |
| 20260510095010 | 51 | 129 | 3.5 | 9.6 | 0.00 | 0.00 | 0.00 | 68 | 1020.7 |
| 20260510094530 | 50 | 65 | 2.6 | 11.3 | 0.00 | 0.00 | 0.00 | 69 | 1020.8 |
| 20260510094008 | 49 | 268 | 1.7 | 11.3 | 0.00 | 0.00 | 0.00 | 70 | 1021.0 |
| 20260510093509 | 49 | 307 | 1.7 | 7.8 | 0.00 | 0.00 | 0.00 | 70 | 1021.0 |
| 20260510093012 | 49 | 320 | 2.6 | 7.8 | 0.00 | 0.00 | 0.00 | 70 | 1021.0 |
| 20260510092506 | 49 | 346 | 3.5 | 7.0 | 0.00 | 0.00 | 0.00 | 70 | 1021.0 |
| 20260510092007 | 49 | 13 | 1.7 | 7.0 | 0.00 | 0.00 | 0.00 | 70 | 1021.0 |
| 20260510091520 | 49 | 302 | 1.7 | 9.6 | 0.00 | 0.00 | 0.00 | 71 | 1021.1 |
| 20260510091007 | 49 | 40 | 2.6 | 9.6 | 0.00 | 0.00 | 0.00 | 71 | 1021.1 |
| 20260510090510 | 49 | 328 | 1.7 | 7.8 | 0.00 | 0.00 | 0.00 | 71 | 1021.2 |
| 20260510090020 | 49 | 352 | 2.6 | 7.0 | 0.00 | 0.00 | 0.00 | 72 | 1021.2 |
| 20260510085506 | 49 | 60 | 2.6 | 6.1 | 0.00 | 0.00 | 0.00 | 71 | 1021.1 |
| 20260510085011 | 49 | 105 | 1.7 | 5.2 | 0.00 | 0.00 | 0.00 | 71 | 1021.2 |
| 20260510084525 | 49 | 44 | 1.7 | 7.8 | 0.00 | 0.00 | 0.00 | 72 | 1021.1 |
| 20260510084009 | 49 | 159 | 2.6 | 7.8 | 0.00 | 0.00 | 0.00 | 72 | 1021.0 |
| 20260510083514 | 49 | 223 | 0.9 | 8.7 | 0.00 | 0.00 | 0.00 | 72 | 1021.1 |
| 20260510083024 | 49 | 243 | 0.9 | 8.7 | 0.00 | 0.00 | 0.00 | 73 | 1021.1 |
| 20260510082509 | 48 | 360 | 2.6 | 8.7 | 0.00 | 0.00 | 0.00 | 73 | 1021.0 |
| 20260510082006 | 48 | 360 | 1.7 | 8.7 | 0.00 | 0.00 | 0.00 | 74 | 1021.0 |
| 20260510081516 | 48 | 360 | 1.7 | 8.7 | 0.00 | 0.00 | 0.00 | 75 | 1021.0 |
| 20260510081007 | 47 | 360 | 3.5 | 7.0 | 0.00 | 0.00 | 0.00 | 74 | 1021.0 |
| 20260510080506 | 47 | 360 | 1.7 | 5.2 | 0.00 | 0.00 | 0.00 | 75 | 1021.0 |
| 20260510080017 | 47 | 360 | 2.6 | 8.7 | 0.00 | 0.00 | 0.00 | 75 | 1021.0 |
| 20260510075509 | 47 | 360 | 2.6 | 7.8 | 0.00 | 0.00 | 0.00 | 76 | 1021.1 |
| 20260510075006 | 47 | 360 | 3.5 | 7.8 | 0.00 | 0.00 | 0.00 | 76 | 1021.0 |
| 20260510074522 | 47 | 360 | 2.6 | 7.8 | 0.00 | 0.00 | 0.00 | 77 | 1021.1 |
| 20260510074010 | 47 | 360 | 2.6 | 8.7 | 0.00 | 0.00 | 0.00 | 77 | 1021.0 |
| 20260510073510 | 46 | 360 | 2.6 | 8.7 | 0.00 | 0.00 | 0.00 | 78 | 1021.0 |
| 20260510073027 | 46 | 360 | 0.9 | 8.7 | 0.00 | 0.00 | 0.00 | 78 | 1021.0 |
| 20260510072510 | 46 | 360 | 2.6 | 9.6 | 0.00 | 0.00 | 0.00 | 78 | 1021.1 |
| 20260510072011 | 46 | 360 | 3.5 | 8.7 | 0.00 | 0.00 | 0.00 | 79 | 1021.0 |
| 20260510071528 | 46 | 360 | 1.7 | 7.0 | 0.00 | 0.00 | 0.00 | 79 | 1021.0 |
| 20260510071003 | 46 | 360 | 2.6 | 5.2 | 0.00 | 0.00 | 0.00 | 80 | 1021.0 |
| 20260510070507 | 46 | 360 | 0.0 | 12.2 | 0.00 | 0.00 | 0.00 | 80 | 1021.0 |
| 20260510070018 | 45 | 360 | 1.7 | 12.2 | 0.00 | 0.00 | 0.00 | 80 | 1021.1 |
| 20260510065507 | 46 | 360 | 2.6 | 10.4 | 0.00 | 0.00 | 0.00 | 81 | 1021.1 |
| 20260510065007 | 46 | 360 | 2.6 | 5.2 | 0.00 | 0.00 | 0.00 | 81 | 1021.1 |
| 20260510064520 | 46 | 360 | 0.0 | 9.6 | 0.00 | 0.00 | 0.00 | 81 | 1021.1 |
| 20260510064010 | 46 | 360 | 0.9 | 9.6 | 0.00 | 0.00 | 0.00 | 81 | 1021.0 |
| 20260510063512 | 46 | 360 | 0.9 | 7.8 | 0.00 | 0.00 | 0.00 | 81 | 1021.0 |
| 20260510063027 | 46 | 360 | 1.7 | 5.2 | 0.00 | 0.00 | 0.00 | 82 | 1020.9 |
| 20260510062511 | 46 | 360 | 0.9 | 5.2 | 0.00 | 0.00 | 0.00 | 82 | 1020.9 |
| 20260510062009 | 46 | 360 | 1.7 | 5.2 | 0.00 | 0.00 | 0.00 | 82 | 1020.9 |
| 20260510061531 | 46 | 360 | 0.9 | 7.0 | 0.00 | 0.00 | 0.00 | 82 | 1020.9 |
| 20260510061013 | 46 | 360 | 2.6 | 7.0 | 0.00 | 0.00 | 0.00 | 83 | 1020.8 |
| 20260510060509 | 46 | 360 | 0.9 | 4.3 | 0.00 | 0.00 | 0.00 | 83 | 1020.9 |
| 20260510060042 | 46 | 360 | 1.7 | 7.8 | 0.00 | 0.00 | 0.00 | 83 | 1020.8 |
| 20260510055507 | 46 | 360 | 1.7 | 7.8 | 0.00 | 0.00 | 0.00 | 83 | 1020.9 |
| 20260510055009 | 46 | 360 | 2.6 | 7.0 | 0.00 | 0.00 | 0.00 | 83 | 1020.8 |
| 20260510054520 | 46 | 360 | 0.9 | 7.8 | 0.00 | 0.00 | 0.00 | 83 | 1020.8 |
| 20260510054008 | 46 | 360 | 2.6 | 7.8 | 0.00 | 0.00 | 0.00 | 83 | 1020.8 |
| 20260510053509 | 46 | 360 | 2.6 | 9.6 | 0.00 | 0.00 | 0.00 | 83 | 1020.8 |
| 20260510053024 | 46 | 360 | 2.6 | 9.6 | 0.00 | 0.00 | 0.00 | 83 | 1020.7 |
| 20260510052510 | 46 | 360 | 0.9 | 7.0 | 0.00 | 0.00 | 0.00 | 83 | 1020.8 |
| 20260510052011 | 46 | 360 | 1.7 | 8.7 | 0.00 | 0.00 | 0.00 | 84 | 1020.8 |
| 20260510051524 | 46 | 360 | 2.6 | 8.7 | 0.00 | 0.00 | 0.00 | 83 | 1020.9 |
| 20260510051013 | 46 | 360 | 0.9 | 7.8 | 0.00 | 0.00 | 0.00 | 84 | 1020.8 |
| 20260510050508 | 46 | 360 | 2.6 | 7.8 | 0.00 | 0.00 | 0.00 | 84 | 1020.8 |
| 20260510050027 | 46 | 360 | 2.6 | 8.7 | 0.00 | 0.00 | 0.00 | 84 | 1020.7 |
| 20260510045512 | 46 | 360 | 0.9 | 8.7 | 0.00 | 0.00 | 0.00 | 84 | 1020.7 |
| 20260510045010 | 46 | 360 | 2.6 | 7.8 | 0.00 | 0.00 | 0.00 | 84 | 1020.6 |
| 20260510044528 | 46 | 360 | 0.9 | 9.6 | 0.00 | 0.00 | 0.00 | 84 | 1020.6 |
| 20260510044009 | 46 | 360 | 2.6 | 9.6 | 0.00 | 0.00 | 0.00 | 85 | 1020.6 |
| 20260510043508 | 46 | 360 | 0.9 | 7.0 | 0.00 | 0.00 | 0.00 | 85 | 1020.7 |
| 20260510043022 | 46 | 360 | 0.9 | 7.0 | 0.00 | 0.00 | 0.00 | 85 | 1020.6 |
| 20260510042508 | 46 | 360 | 1.7 | 5.2 | 0.00 | 0.00 | 0.00 | 85 | 1020.7 |
| 20260510042004 | 46 | 360 | 1.7 | 11.3 | 0.00 | 0.00 | 0.00 | 86 | 1020.6 |
| 20260510041515 | 46 | 360 | 0.9 | 11.3 | 0.00 | 0.00 | 0.00 | 86 | 1020.7 |
| 20260510041007 | 46 | 360 | 3.5 | 9.6 | 0.00 | 0.00 | 0.00 | 86 | 1020.7 |
| 20260510040504 | 46 | 360 | 1.7 | 7.0 | 0.00 | 0.00 | 0.00 | 86 | 1020.7 |
| 20260510040013 | 46 | 360 | 2.6 | 7.0 | 0.00 | 0.00 | 0.00 | 86 | 1020.7 |
| 20260510035505 | 46 | 360 | 1.7 | 7.0 | 0.00 | 0.00 | 0.00 | 86 | 1020.7 |
| 20260510035008 | 46 | 360 | 1.7 | 10.4 | 0.00 | 0.00 | 0.00 | 86 | 1020.8 |
| 20260510034514 | 46 | 360 | 2.6 | 10.4 | 0.00 | 0.00 | 0.00 | 86 | 1020.8 |
| 20260510034008 | 46 | 360 | 0.9 | 7.0 | 0.00 | 0.00 | 0.00 | 87 | 1020.8 |
| 20260510033506 | 46 | 360 | 0.9 | 5.2 | 0.00 | 0.00 | 0.00 | 87 | 1020.9 |
| 20260510033020 | 46 | 360 | 2.6 | 7.0 | 0.00 | 0.00 | 0.00 | 87 | 1021.0 |
| 20260510032512 | 46 | 360 | 0.9 | 7.0 | 0.00 | 0.00 | 0.00 | 87 | 1021.0 |
| 20260510032009 | 46 | 360 | 0.9 | 5.2 | 0.00 | 0.00 | 0.00 | 88 | 1021.0 |
| 20260510031506 | 46 | 360 | 0.9 | 9.6 | 0.00 | 0.00 | 0.00 | 88 | 1021.0 |
| 20260510031005 | 46 | 360 | 3.5 | 9.6 | 0.00 | 0.00 | 0.00 | 88 | 1021.0 |
| 20260510030504 | 46 | 360 | 1.7 | 7.8 | 0.00 | 0.00 | 0.00 | 88 | 1021.0 |
| 20260510030009 | 47 | 360 | 1.7 | 8.7 | 0.00 | 0.00 | 0.00 | 88 | 1021.0 |
| 20260510025504 | 47 | 360 | 1.7 | 8.7 | 0.00 | 0.00 | 0.00 | 88 | 1021.1 |
| 20260510025009 | 47 | 360 | 1.7 | 8.7 | 0.00 | 0.00 | 0.00 | 88 | 1021.1 |
| 20260510024005 | 47 | 360 | 0.9 | 7.0 | 0.00 | 0.00 | 0.00 | 88 | 1021.2 |
| 20260510023504 | 47 | 360 | 1.7 | 8.7 | 0.00 | 0.00 | 0.00 | 88 | 1021.2 |
| 20260510023035 | 47 | 360 | 0.9 | 8.7 | 0.00 | 0.00 | 0.00 | 88 | 1021.2 |
| 20260510022507 | 47 | 360 | 2.6 | 8.7 | 0.00 | 0.00 | 0.00 | 88 | 1021.2 |
| 20260510022009 | 47 | 360 | 1.7 | 5.2 | 0.00 | 0.00 | 0.00 | 88 | 1021.3 |
| 20260510021524 | 47 | 360 | 1.7 | 5.2 | 0.00 | 0.00 | 0.00 | 88 | 1021.3 |
| 20260510021009 | 47 | 360 | 0.9 | 4.3 | 0.00 | 0.00 | 0.00 | 88 | 1021.4 |
| 20260510020511 | 47 | 360 | 0.9 | 4.3 | 0.00 | 0.00 | 0.00 | 88 | 1021.3 |
| 20260510020004 | 47 | 360 | 1.7 | 7.8 | 0.00 | 0.00 | 0.00 | 88 | 1021.4 |
| 20260510015503 | 47 | 360 | 2.6 | 7.8 | 0.00 | 0.00 | 0.00 | 89 | 1021.4 |
| 20260510015011 | 47 | 360 | 2.6 | 7.8 | 0.00 | 0.00 | 0.00 | 89 | 1021.4 |
| 20260510014512 | 47 | 360 | 1.7 | 7.8 | 0.00 | 0.00 | 0.00 | 89 | 1021.5 |
| 20260510014006 | 47 | 360 | 2.6 | 7.8 | 0.00 | 0.00 | 0.00 | 89 | 1021.4 |
| 20260510013510 | 47 | 360 | 0.9 | 8.7 | 0.00 | 0.00 | 0.00 | 89 | 1021.4 |
| 20260510013016 | 47 | 360 | 1.7 | 8.7 | 0.00 | 0.00 | 0.00 | 88 | 1021.3 |
| 20260510012506 | 47 | 360 | 1.7 | 5.2 | 0.00 | 0.00 | 0.00 | 88 | 1021.3 |
| 20260510012006 | 47 | 360 | 0.0 | 7.8 | 0.00 | 0.00 | 0.00 | 88 | 1021.3 |
| 20260510011526 | 47 | 360 | 1.7 | 7.8 | 0.00 | 0.00 | 0.00 | 88 | 1021.2 |
| 20260510011017 | 47 | 360 | 1.7 | 4.3 | 0.00 | 0.00 | 0.00 | 87 | 1021.2 |
| 20260510010508 | 47 | 360 | 0.9 | 7.0 | 0.00 | 0.00 | 0.00 | 87 | 1021.2 |
| 20260510010029 | 47 | 360 | 0.9 | 7.8 | 0.00 | 0.00 | 0.00 | 87 | 1021.1 |
| 20260510005510 | 48 | 360 | 2.6 | 10.4 | 0.00 | 0.00 | 0.00 | 86 | 1021.0 |
| 20260510005004 | 48 | 360 | 1.7 | 11.3 | 0.00 | 0.00 | 0.00 | 86 | 1021.1 |
| 20260510004511 | 48 | 360 | 2.6 | 11.3 | 0.00 | 0.00 | 0.00 | 86 | 1021.0 |
| 20260510004003 | 48 | 360 | 3.5 | 7.8 | 0.00 | 0.00 | 0.00 | 85 | 1021.1 |
| 20260510003507 | 48 | 360 | 0.9 | 9.6 | 0.00 | 0.00 | 0.00 | 85 | 1021.0 |
| 20260510003018 | 49 | 360 | 3.5 | 9.6 | 0.00 | 0.00 | 0.00 | 84 | 1021.0 |
| 20260510002506 | 49 | 360 | 1.7 | 9.6 | 0.00 | 0.00 | 0.00 | 83 | 1021.0 |
| 20260510002005 | 49 | 360 | 2.6 | 9.6 | 0.00 | 0.00 | 0.00 | 83 | 1021.1 |
| 20260510001520 | 49 | 360 | 1.7 | 8.7 | 0.00 | 0.00 | 0.00 | 82 | 1021.1 |
| 20260510001006 | 49 | 360 | 3.5 | 7.0 | 0.00 | 0.00 | 0.00 | 82 | 1021.1 |
| 20260510000511 | 50 | 360 | 1.7 | 5.2 | 0.00 | 0.00 | 0.00 | 82 | 1021.1 |
| 20260510000024 | 50 | 360 | 0.9 | 5.2 | 0.00 | 0.00 | 0.00 | 83 | 1021.1 |
| 20260509235507 | 49 | 360 | 0.9 | 10.4 | 0.00 | 0.00 | 0.00 | 83 | 1021.2 |
| 20260509235010 | 49 | 360 | 3.5 | 10.4 | 0.00 | 0.00 | 0.00 | 83 | 1021.1 |